View from above orbital plane
|
View from above satellite
|
Ground track
|
The orbit data is extracted from the following two-line orbital elements,
1 25544U 98067A 21017.50325542 .00016717 00000-0 10270-3 0 9026
2 25544 51.6424 8.0337 0000144 271.4844 88.6289 15.49309747 25236
Epoch (UTC): | 17 January 2021 12:04:41 |
Eccentricity: | 0.0000144 |
inclination: | 51.6424° |
perigee height: | 418 km |
apogee height: | 419 km |
right ascension of ascending node: | 8.0337° |
argument of perigee: | 271.4844° |
revolutions per day: | 15.49309747 |
mean anomaly at epoch: | 88.6289° |
orbit number at epoch: | 2523 |
The dashed part of the orbit path shows where the satellite is in the earth's shadow,
|
|